TimeEST,TemperatureF,Dew PointF,Humidity,Sea Level PressureIn,VisibilityMPH,Wind Direction,Wind SpeedMPH,Gust SpeedMPH,PrecipitationIn,Events,Conditions,WindDirDegrees,DateUTC
2:35 AM,33.8,32.0,93,30.14,10.0,Calm,Calm,-,N/A,,Clear,0,2012-11-06 07:35:00
3:15 AM,32.0,30.2,93,30.13,10.0,Calm,Calm,-,N/A,,Clear,0,2012-11-06 08:15:00
4:15 AM,32.0,30.2,93,30.13,10.0,Calm,Calm,-,N/A,,Scattered Clouds,0,2012-11-06 09:15:00
4:35 AM,33.8,30.2,87,30.12,10.0,Calm,Calm,-,N/A,,Scattered Clouds,0,2012-11-06 09:35:00
4:55 AM,35.6,32.0,87,30.13,10.0,Calm,Calm,-,N/A,,Scattered Clouds,0,2012-11-06 09:55:00
5:15 AM,35.6,33.8,93,30.12,10.0,Calm,Calm,-,N/A,,Scattered Clouds,0,2012-11-06 10:15:00
5:35 AM,35.6,33.8,93,30.11,10.0,Calm,Calm,-,N/A,,Clear,0,2012-11-06 10:35:00
5:55 AM,35.6,33.8,93,30.12,10.0,Calm,Calm,-,N/A,,Mostly Cloudy,0,2012-11-06 10:55:00
6:15 AM,39.2,33.8,81,30.12,10.0,Calm,Calm,-,N/A,,Scattered Clouds,0,2012-11-06 11:15:00
6:35 AM,41.0,33.8,76,30.12,10.0,Calm,Calm,-,N/A,,Clear,0,2012-11-06 11:35:00
6:55 AM,42.8,33.8,70,30.11,10.0,North,4.6,-,N/A,,Clear,360,2012-11-06 11:55:00
8:15 AM,44.6,37.4,76,30.13,10.0,North,6.9,-,N/A,,Clear,360,2012-11-06 13:15:00
8:35 AM,46.4,37.4,71,30.12,10.0,North,6.9,-,N/A,,Clear,360,2012-11-06 13:35:00
9:35 AM,46.4,37.4,71,30.13,10.0,North,8.1,-,N/A,,Clear,360,2012-11-06 14:35:00
9:55 AM,48.2,37.4,66,30.13,10.0,NNE,6.9,-,N/A,,Clear,20,2012-11-06 14:55:00
10:15 AM,48.2,37.4,66,30.13,10.0,North,8.1,-,N/A,,Clear,10,2012-11-06 15:15:00
10:55 AM,48.2,37.4,66,30.10,10.0,North,9.2,16.1,N/A,,Clear,10,2012-11-06 15:55:00
11:15 AM,50.0,37.4,62,30.09,10.0,North,9.2,16.1,N/A,,Clear,360,2012-11-06 16:15:00
11:35 AM,50.0,37.4,62,30.08,10.0,North,11.5,16.1,N/A,,Clear,360,2012-11-06 16:35:00
11:55 AM,48.2,39.2,71,30.08,10.0,NNE,9.2,16.1,N/A,,Clear,30,2012-11-06 16:55:00
12:15 PM,50.0,39.2,66,30.07,10.0,NNE,12.7,-,N/A,,Clear,30,2012-11-06 17:15:00
12:35 PM,48.2,39.2,71,30.06,10.0,North,10.4,-,N/A,,Clear,10,2012-11-06 17:35:00
12:55 PM,48.2,39.2,71,30.05,10.0,North,5.8,18.4,N/A,,Scattered Clouds,10,2012-11-06 17:55:00
1:15 PM,48.2,39.2,71,30.04,10.0,NNE,9.2,17.3,N/A,,Mostly Cloudy,20,2012-11-06 18:15:00
1:35 PM,48.2,39.2,71,30.03,10.0,North,12.7,17.3,N/A,,Overcast,10,2012-11-06 18:35:00
1:55 PM,48.2,39.2,71,30.04,10.0,NNE,9.2,-,N/A,,Overcast,20,2012-11-06 18:55:00
2:15 PM,48.2,39.2,71,30.04,10.0,NNE,10.4,18.4,N/A,,Overcast,20,2012-11-06 19:15:00
2:35 PM,48.2,39.2,71,30.05,10.0,North,9.2,-,N/A,,Overcast,10,2012-11-06 19:35:00
2:55 PM,48.2,39.2,71,30.05,10.0,North,8.1,-,N/A,,Overcast,360,2012-11-06 19:55:00
3:15 PM,48.2,39.2,71,30.04,10.0,North,8.1,-,N/A,,Overcast,350,2012-11-06 20:15:00
3:35 PM,48.2,39.2,71,30.02,10.0,North,6.9,17.3,N/A,,Mostly Cloudy,360,2012-11-06 20:35:00
3:55 PM,48.2,39.2,71,30.01,10.0,North,9.2,-,N/A,,Scattered Clouds,10,2012-11-06 20:55:00
4:15 PM,48.2,39.2,71,30.01,10.0,North,5.8,-,N/A,,Mostly Cloudy,360,2012-11-06 21:15:00
4:35 PM,48.2,39.2,71,30.00,10.0,North,8.1,-,N/A,,Overcast,10,2012-11-06 21:35:00
4:55 PM,48.2,39.2,71,29.98,10.0,North,9.2,-,N/A,,Overcast,10,2012-11-06 21:55:00
5:15 PM,48.2,39.2,71,29.96,10.0,North,8.1,-,N/A,,Overcast,10,2012-11-06 22:15:00
5:35 PM,48.2,39.2,71,29.95,10.0,North,6.9,-,N/A,,Overcast,10,2012-11-06 22:35:00
5:55 PM,48.2,41.0,76,29.96,10.0,North,5.8,-,N/A,,Overcast,360,2012-11-06 22:55:00
6:35 PM,48.2,42.8,82,29.97,10.0,NNW,6.9,-,N/A,,Overcast,340,2012-11-06 23:35:00
6:55 PM,48.2,42.8,82,29.95,10.0,North,6.9,-,N/A,,Overcast,360,2012-11-06 23:55:00
7:15 PM,48.2,42.8,82,29.94,10.0,North,5.8,-,N/A,,Overcast,360,2012-11-07 00:15:00
7:35 PM,50.0,42.8,76,29.94,10.0,North,8.1,-,N/A,,Overcast,10,2012-11-07 00:35:00
7:55 PM,50.0,42.8,76,29.94,10.0,North,6.9,-,N/A,,Overcast,350,2012-11-07 00:55:00
8:15 PM,50.0,42.8,76,29.94,10.0,North,5.8,-,N/A,,Overcast,360,2012-11-07 01:15:00
8:35 PM,48.2,44.6,87,29.93,10.0,North,6.9,-,N/A,Rain,Light Rain,350,2012-11-07 01:35:00
8:55 PM,46.4,42.8,87,29.93,10.0,NW,4.6,-,N/A,Rain,Light Rain,320,2012-11-07 01:55:00
9:15 PM,46.4,42.8,87,29.94,10.0,West,3.5,-,0.01,Rain,Light Rain,270,2012-11-07 02:15:00
9:35 PM,44.6,42.8,93,29.91,10.0,NW,6.9,-,0.03,Rain,Rain,310,2012-11-07 02:35:00
9:55 PM,46.4,44.6,93,29.90,10.0,NNW,4.6,-,0.01,Rain,Light Rain,340,2012-11-07 02:55:00
10:15 PM,46.4,44.6,93,29.90,10.0,Calm,Calm,-,0.01,Rain,Light Rain,0,2012-11-07 03:15:00
10:35 PM,48.2,46.4,93,29.88,10.0,North,5.8,-,0.02,Rain,Light Rain,360,2012-11-07 03:35:00
10:55 PM,48.2,46.4,93,29.86,10.0,North,9.2,-,N/A,Rain,Light Rain,10,2012-11-07 03:55:00
11:15 PM,48.2,46.4,93,29.85,10.0,North,11.5,16.1,0.01,Rain,Rain,10,2012-11-07 04:15:00
11:35 PM,48.2,46.4,93,29.85,10.0,North,11.5,19.6,0.01,Rain,Rain,360,2012-11-07 04:35:00
11:55 PM,48.2,46.4,93,29.84,10.0,North,10.4,-,0.01,Rain,Light Rain,350,2012-11-07 04:55:00